New Haven, CT

4:32 PM EST on November 14, 2019 (GMT -0500)
Tweed-New Haven

Weather History for KHVN - October, 2019

Change the Weather History Date:

Tuesday, October 22, 2019

  Actual Average Record
Temperature  
Mean Temperature 54 °F -  
Max Temperature 63 °F 57 °F 85 °F (1979)
Min Temperature 48 °F 42 °F 32 °F (2002)
Degree Days  
Heating Degree Days 10    
Growing Degree Days 4 (Base 50)    
Moisture  
Dew Point 52 °F    
Average Humidity 83    
Maximum Humidity 93    
Minimum Humidity 69    
Precipitation  
Precipitation 0.16 in - - ()
Sea Level Pressure  
Sea Level Pressure 30.01 in    
Wind  
Wind Speed 7 mph ()    
Max Wind Speed 18 mph    
Max Gust Speed 29 mph    
Visibility 8.3 miles    
Events Rain    
Averages and records for this station are not official NWS values.
T = Trace of Precipitation, MM = Missing Value Source: Averaged Metar Reports

Daily Weather History Graph

Daily Weather History Graph

Search for Another Location

Airport or City:

Astronomy

Oct. 22, 2019 Rise Set
Actual Time 7:10 AM EDT 6:00 PM EDT
Civil Twilight 6:42 AM EDT 6:28 PM EDT
Nautical Twilight 6:10 AM EDT 7:00 PM EDT
Astronomical Twilight 5:38 AM EDT 7:32 PM EDT
Moon 12:12 AM EDT (10/22) 3:12 PM EDT (10/22)
Length of Visible Light 11h 45m
Length of Day
10h 49m
Last Quarter, 37% of the Moon is Illuminated
Oct 22
Last Quarter
Oct 27
New
Nov 4
First Quarter
Nov 12
Full
Nov 19
Last Quarter

Hourly Weather History & Observations

Time (EDT) Temp. Dew Point Humidity Pressure Visibility Wind Dir Wind Speed Gust Speed Precip Events Conditions
12:53 AM 48.0 °F 44.1 °F 86% 30.14 in 10.0 mi NNE 3.5 mph - N/A   Clear
1:53 AM 50.0 °F 43.0 °F 77% 30.14 in 10.0 mi North 4.6 mph - N/A   Clear
2:53 AM 52.0 °F 42.1 °F 69% 30.11 in 10.0 mi NNE 5.8 mph - N/A   Clear
3:53 AM 48.9 °F 42.1 °F 77% 30.10 in 10.0 mi NNE 4.6 mph - N/A   Clear
4:53 AM 51.1 °F 43.0 °F 74% 30.10 in 10.0 mi NNE 8.1 mph - N/A   Clear
5:53 AM 51.1 °F 43.0 °F 74% 30.11 in 10.0 mi NNE 4.6 mph - N/A   Clear
6:53 AM 51.1 °F 45.0 °F 80% 30.09 in 10.0 mi NNE 5.8 mph - N/A   Clear
7:53 AM 52.0 °F 46.0 °F 80% 30.10 in 10.0 mi NNE 4.6 mph - N/A   Mostly Cloudy
8:53 AM 54.0 °F 48.0 °F 80% 30.12 in 10.0 mi Variable 3.5 mph - N/A   Overcast
9:53 AM 55.9 °F 48.9 °F 77% 30.09 in 10.0 mi NE 8.1 mph - N/A   Overcast
10:53 AM 57.0 °F 51.1 °F 81% 30.09 in 10.0 mi NE 3.5 mph - N/A   Overcast
11:53 AM 59.0 °F 53.1 °F 81% 30.09 in 10.0 mi East 5.8 mph - N/A   Overcast
12:33 PM 59.0 °F 53.1 °F 81% 30.07 in 1.8 mi East 8.1 mph - N/A   Haze
12:35 PM 59.0 °F 54.0 °F 83% 30.07 in 7.0 mi East 6.9 mph - N/A   Overcast
12:53 PM 59.0 °F 54.0 °F 83% 30.06 in 7.0 mi East 9.2 mph - N/A   Overcast
1:10 PM 59.0 °F 54.0 °F 83% 30.06 in 8.0 mi East 9.2 mph - N/A   Overcast
1:53 PM 60.1 °F 55.0 °F 83% 30.03 in 10.0 mi East 9.2 mph - N/A   Overcast
2:53 PM 60.1 °F 55.0 °F 83% 29.98 in 10.0 mi East 11.5 mph - N/A   Overcast
3:53 PM 61.0 °F 55.0 °F 81% 29.96 in 10.0 mi East 12.7 mph - N/A   Overcast
4:16 PM 61.0 °F 55.0 °F 81% 29.96 in 10.0 mi East 17.3 mph 23.0 mph N/A   Overcast
4:53 PM 61.0 °F 55.9 °F 83% 29.95 in 10.0 mi East 15.0 mph 20.7 mph N/A   Overcast
5:15 PM 61.0 °F 55.9 °F 83% 29.95 in 10.0 mi East 18.4 mph 28.8 mph N/A   Overcast
6:53 PM 60.1 °F 57.0 °F 90% 29.93 in 10.0 mi East 11.5 mph 25.3 mph N/A   Overcast
7:53 PM 61.0 °F 57.9 °F 90% 29.92 in 10.0 mi East 13.8 mph 19.6 mph N/A   Overcast
8:51 PM 60.8 °F 57.2 °F 88% 29.92 in 2.5 mi East 6.9 mph 16.1 mph N/A   Overcast
8:53 PM 60.1 °F 57.9 °F 93% 29.92 in 2.5 mi East 6.9 mph 16.1 mph N/A   Overcast
9:08 PM 60.1 °F 57.9 °F 93% 29.91 in 2.5 mi East 8.1 mph - 0.01 in Rain Light Rain
9:23 PM 60.1 °F 57.9 °F 93% 29.91 in 3.0 mi East 6.9 mph - 0.03 in Rain Light Rain
9:53 PM 60.1 °F 57.0 °F 90% 29.89 in 5.0 mi East 10.4 mph - 0.07 in Rain Light Rain
10:53 PM 60.1 °F 57.0 °F 90% 29.86 in 10.0 mi East 12.7 mph - 0.02 in   Overcast
11:33 PM 61.0 °F 57.9 °F 90% 29.84 in 8.0 mi East 10.4 mph - 0.03 in Rain Rain
11:53 PM 61.0 °F 59.0 °F 93% 29.83 in 8.0 mi East 10.4 mph - 0.07 in Rain Light Rain